Regional Weather Roundup
Issued by NWS

Home | Current Version | Previous Version | Graphics & Text | Print | Product List | Glossary On
Versions: 1 2 3 4 5 6 7 8 9 10 11 12 13 14 15 16 17 18 19 20 21 22 23 24 25 26 27 28 29 30 31 32 33 34 35 36 37 38 39 40 41 42 43 44 45 46 47 48 49 50
000
ASUS43 KLSX 301557
RWRMO

WEATHER SUMMARY FOR MISSOURI
NATIONAL WEATHER SERVICE SPRINGFIELD MO
1100 AM CDT SAT JUL 30 2016

NOTE: "FAIR" INDICATES FEW OR NO CLOUDS BELOW 12,000 FEET WITH NO
       SIGNIFICANT WEATHER AND/OR OBSTRUCTIONS TO VISIBILITY.
       CURRENT SKY AND/OR WEATHER CONDITIONS ARE NOT AVAILABLE FOR
       CHILLICOTHE AND FARMINGTON.

MOZ001>031-035>038-043-044-053-054-301700-
...NORTHERN AND WESTERN MISSOURI...

CITY           SKY/WX    TMP DP  RH WIND       PRES   REMARKS
KANSAS CTY INT CLOUDY    75  63  66 VRB5      30.05R
LEE`S SUMMIT   MOSUNNY   78  65  63 CALM      30.05R
ST JOSEPH      MOSUNNY   78  63  59 VRB3      30.04R

$$
MOZ066>068-077>081-088>096-101>105-301700-
...SOUTHWEST MISSOURI...

CITY           SKY/WX    TMP DP  RH WIND       PRES   REMARKS
SPRINGFIELD    SUNNY     82  66  58 SE3       30.03S
JOPLIN         SUNNY     84  70  62 CALM      30.03R
BRANSON        PTSUNNY   81  73  78 CALM      30.06R

$$
MOZ032>034-039>042-045>050-055>058-069>072-301700-
...CENTRAL MISSOURI...

CITY           SKY/WX    TMP DP  RH WIND       PRES   REMARKS
COLUMBIA       NOT AVBL
JEFFERSON CITY MOSUNNY   80  67  64 NW7       30.01R
ROLLA          SUNNY     79  67  66 W5        30.02S
SEDALIA        MOSUNNY   79  67  66 VRB3      30.05R

$$
MOZ051-052-059>065-301700-
...EAST CENTRAL MISSOURI...

CITY           SKY/WX    TMP DP  RH WIND       PRES   REMARKS
ST LOUIS INTL  MOSUNNY   84  65  52 W7        30.00S

$$
MOZ072>076-082>087-097>100-106>115-301700-
...SOUTH CENTRAL AND SOUTHEAST MISSOURI...

CITY           SKY/WX    TMP DP  RH WIND       PRES   REMARKS
CAPE GIRARDEAU PTSUNNY   76  71  85 VRB3      30.00S
POPLAR BLUFF   CLOUDY    77  72  84 CALM      30.01R
WEST PLAINS    PTSUNNY   83  69  62 CALM      30.06R

$$



USA.gov is the U.S. government's official web portal to all federal, state and local government web resources and services.